AirNav   Bose A20 Aviation Headset
 
 733 users online  

PAGQ Big Lake Airport
Big Lake, Alaska, USA

GOING TO BIG LAKE?


FAA INFORMATION EFFECTIVE 11 OCTOBER 2018

Location

FAA Identifier: BGQ
Lat/Long: 61-32-04.8600N / 149-48-45.1600W
61-32.081000N / 149-48.752667W
61.5346833 / -149.8125444
(estimated)
Elevation: 157.5 ft. / 48 m (estimated)
Variation: 19E (2010)
From city: 1 mile SE of BIG LAKE, AK
Time zone: UTC -8 (UTC -9 during Standard Time)
Zip code: 99652

Airport Operations

Airport use: Open to the public
Activation date: 05/1951
Control tower: no
ARTCC: ANCHORAGE CENTER
FSS: KENAI FLIGHT SERVICE STATION [907-283-8469]
NOTAMs facility: ENA (NOTAM-D service available)
Attendance: UNATNDD
Wind indicator: lighted
Segmented circle: yes
Lights: ACTVT MIRL RY 07/25 - 122.8
Beacon: white-green (lighted land airport)
Operates sunset to sunrise.

Airport Communications

CTAF: 122.8
ANCHORAGE APPROACH: 118.6
ANCHORAGE DEPARTURE: 118.6
CLASS C: 118.6
WX AWOS-3P at IYS (8 nm E): 135.25 (907-373-3801)
WX AWOS-3P at BCV (11 nm SE): 135.55 (907-688-0826)
WX AWOS-3 at FRN (17 nm S): PHONE 907-384-0132
WX ASOS at MRI (19 nm S): PHONE 907-271-5277

Nearby radio navigation aids

VOR radial/distance  VOR name  Freq  Var
BGQr096/4.9BIG LAKE VORTAC112.5019E
TEDr353/22.4ANCHORAGE VOR/DME113.1518E

 
NDB name  Hdg/Dist  Freq  Var  ID
CAMPBELL LAKE001/22.833816ECMQ -.-. -- --.-

Airport Services

Parking: tiedowns
Airframe service: MAJOR
Powerplant service: MAJOR

Runway Information

Runway 7/25

Dimensions: 2450 x 70 ft. / 747 x 21 m
Surface: gravel, in good condition
Runway edge lights: medium intensity
RUNWAY 7  RUNWAY 25
Latitude: 61-32.081000N61-32.081000N
Longitude: 149-49.173833W149-48.331500W
Elevation: 154.9 ft.150.9 ft.
Gradient: 0.5%0.5%
Traffic pattern: leftleft
Runway heading: 071 magnetic, 090 true251 magnetic, 270 true
Markings: NSTD, in good conditionNSTD, in good condition
Runway end identifier lights: nono
Touchdown point: yes, no lightsyes, no lights
Obstructions: 8 ft. brush, 108 ft. left and right of centerline42 ft. trees, 207 ft. left of centerline

Airport Ownership and Management from official FAA records

Ownership: Publicly-owned
Owner: ALASKA DOT&PF CENTRAL REGION
PO BOX 196900
ANCHORAGE, AK 99519-6900
Phone 907-269-0770
Manager: KYLER HYLTON
289 INNER SPRING LOOP, DOT&PF CENTRAL REGION
PALMER, AK 99645
Phone 907-745-2159

Airport Operational Statistics

Aircraft based on the field: 66
Single engine airplanes: 62
Multi engine airplanes: 1
Ultralights: 3
    
Aircraft operations: avg 26/day *
84% transient general aviation
16% local general aviation
* for 12-month period ending 31 December 2015

Additional Remarks

LOW FLYING ACFT INVOF APCH TO BIG LAKE VOR.
ARPT HAS DESIGNATED TRANSIENT ACFT PARKING AVBL. TRANSIENT ACFT PARKING IS DESIGNATED WITH GREEN CONES.
BE ALERT: FROST HEAVE ON RY APRXLY 2200 FT.
RY COND NOT MONITORED; RECOMMEND VISUAL INSPECTION PRIOR TO USE.
UPDRAFT OFF OF RISING HILL ON APCH TO RY 25.
RY 07+15' ROAD PARALLEL TO RY END.
190 FT AGL LIGHTED TWR 2 NM NE OF ARPT.
BE ALERT: OCCASIONAL ULTRA LIGHT TRAFFIC.

Instrument Procedures

NOTE: All procedures below are presented as PDF files. If you need a reader for these files, you should download the free Adobe Reader.

NOT FOR NAVIGATION. Please procure official charts for flight.
FAA instrument procedures published for use from 11 October 2018 at 0901Z to 8 November 2018 at 0900Z.

 
IAPs - Instrument Approach Procedures
RNAV (GPS) RWY 07   download (218KB)
RNAV (GPS) RWY 25   download (210KB)
VOR RWY 07   download (193KB)
NOTE: Special Take-Off Minimums/Departure Procedures apply   download (148KB)

Other nearby airports with instrument procedures:

PAWS - Wasilla Airport (8 nm E)
PAUO - Willow Airport (15 nm NW)
PAFR - Bryant Army Airfield Heliport (17 nm S)
PAED - Elmendorf Air Force Base (17 nm S)
PAMR - Merrill Field Airport (19 nm S)
 
Loc | Ops | Rwys | IFR | FBO | Links
Com | Nav | Svcs | Stats | Notes

Crowley
 
Area around PAGQ (Big Lake Airport)
 
Road maps at: MapQuest Bing Google
 
Aerial photo
WARNING: Photo may not be current or correct
Aerial photo of PAGQ (Big Lake Airport)
Do you have a better or more recent aerial photo of Big Lake Airport that you would like to share? If so, please send us your photo.

 
Sectional chart

 
Airport distance calculator
Flying to Big Lake Airport? Find the distance to fly.

From to PAGQ

Sunrise and sunset
Times for 21-Oct-2018
 Local
(UTC-8)
 Zulu
(UTC)
Morning civil twilight08:1516:15
Sunrise09:0017:00
Sunset18:2802:28
Evening civil twilight19:1303:13

Current date and time
Zulu (UTC)  21-Oct-2018 13:08:20
Local (UTC-8)  21-Oct-2018 05:08:20
 
METAR
PABV 
11nm SE 
211256Z AUTO VRB05KT 10SM OVC090 04/02 A2938 RMK AO2 SLP958 T00440017
PAFR 
17nm S 
211258Z AUTO 00000KT 8SM -PL FEW030 BKN049 OVC060 04/02 A2936 RMK AO2 SLP949 P0000 T00390023
PAED 
17nm S 
211300Z AUTO 09003KT 10SM -RA OVC050 04/04 A2937 RMK AO2 DZE1258RAB00 SLP942
PAMR 
19nm S 
211253Z VRB03KT 10SM -RA OVC055 04/02 A2938 RMK AO2 RAB40 SLP950 P0000 T00440022
PAAQ 
21nm E 
211253Z AUTO 10005KT 10SM SCT039 BKN060 OVC070 07/04 A2942 RMK AO2 PK WND 13031/1222 RAB16E47 SLP965 P0001 T00670039 TSNO
PALH 
22nm S 
211253Z VRB03KT 10SM -RA BKN055 OVC070 05/03 A2938 RMK AO2 RAB35 SLP950 P0000 T00500028
TAF
PAED 
17nm S 
211100Z 2111/2217 28009KT 9999 FEW040 BKN060 620602 510404 QNH2930INS TEMPO 2116/2120 05015G25KT 520003 BECMG 2202/2203 08006KT 9000 -RA FEW030 BKN060 620604 QNH2941INS TX09/2122Z TN03/2111Z
PAAQ 
21nm E 
211139Z 2112/2212 10015G30KT P6SM VCSH SCT050 OVC080 TEMPO 2112/2116 11010G18KT FM220000 13012G20KT P6SM VCSH SCT040 OVC060 FM220600 04010KT P6SM OVC100
NOTAMs
Click for the latest NOTAMs
NOTAMs are issued by the DoD/FAA and will open in a separate window not controlled by AirNav.

 

 
 

Would you like to see your business listed on this page?

 If your business provides an interesting product or service to pilots, flight crews, aircraft, or users of the Big Lake Airport, you should consider listing it here.  To start the listing process, click on the button below
 
Add a business
 

Other Pages about Big Lake Airport

Update a link
 
Copyright © AirNav, LLC. All rights reserved. Privacy Policy  Contact